Regional Weather Roundup
Issued by NWS

Home | Current Version | Previous Version | Text Only | Print | Product List | Glossary Off
Versions: 1 2 3 4 5 6 7 8 9 10 11 12 13 14 15 16 17 18 19 20 21 22 23 24 25 26 27 28 29 30 31 32 33 34 35 36 37 38 39 40 41 42 43 44 45 46 47 48 49 50

000
ASUS43 KIND 192059
RWRIN

WEATHER ROUNDUP FOR INDIANA
NATIONAL WEATHER SERVICE INDIANAPOLIS IN
400 PM EST SUN NOV 19 2017

NOTE: "FAIR" INDICATES FEW OR NO CLOUDS BELOW 12,000 FEET WITH NO
SIGNIFICANT WEATHER AND/OR OBSTRUCTIONS TO VISIBILITY.

* - STATION DOES NOT REPORT WEATHER SUCH AS PRECIPITATION OR FOG.

+ - STATION NOT QUALITY CONTROLLED BY THE NATIONAL WEATHER SERVICE.
    USE DATA WITH CAUTION...ESPECIALLY DEWPOINT AND RELATIVE
    HUMIDITY OBSERVATIONS.

INZ001>003-010>013-019-020-192200-
NORTHWEST INDIANA

CITY           SKY/WX    TMP DP  RH WIND       PRES   REMARKS
GARY /AIRPORT/ PTSUNNY   36  16  44 W12G23    30.05S WCI  27
KNOX *+        SUNNY     34  23  64 W14G20    30.03R WCI  24
LA PORTE +     SUNNY     33  20  58 NW9G17    30.02S WCI  26
MONTICELLO +   MOSUNNY   32  22  66 W14       30.06S WCI  22

$$

LMZ046-743>745-192200-
SOUTHERN LAKE MICHIGAN

STATION/POSITION TIME  TEMP    WIND        PRES    WAVE
                       AIR SEA DIR/SP/G            HT
                 (UTC) (F)     (DEG/KT/KT) (MB)    (FT)
BURNS HARBOR     2040   35     270/ 12/ 17 1017.6R
MICHIGAN CITY    2030   34     260/ 17/ 20   N/A

$$

INZ004-005-014>016-021>024-192200-
NORTH CENTRAL INDIANA

CITY           SKY/WX    TMP DP  RH WIND       PRES   REMARKS
GOSHEN         PTSUNNY   34  21  59 W14       30.00R WCI  25
PERU/GRISSOM   CLOUDY    32  25  75 W18       30.04R WCI  20
SOUTH BEND     MOSUNNY   32  21  64 W16G24    30.01S WCI  21
WARSAW +       PTSUNNY   32  23  69 W13G20    30.00R WCI  22

$$

INZ006>009-017-018-025>027-192200-
NORTHEAST INDIANA

CITY           SKY/WX    TMP DP  RH WIND       PRES   REMARKS
AUBURN +       CLOUDY    32  21  64 W16G26    29.99R WCI  21
FORT WAYNE     CLOUDY    35  23  61 W23       30.00R WCI  23
KENDALLVILLE + CLOUDY    32  20  62 NW13G25   29.98R WCI  22

$$

INZ028-029-035-036-043>045-051>053-192200-
WEST CENTRAL INDIANA

CITY           SKY/WX    TMP DP  RH WIND       PRES   REMARKS
LAFAYETTE      MOSUNNY   33  24  69 W13G21    30.09R WCI  24
TERRE HAUTE    SUNNY     36  21  54 W10       30.14R WCI  28

$$

INZ030>032-037>040-046>048-054>057-064-065-192200-
CENTRAL INDIANA

CITY           SKY/WX    TMP DP  RH WIND       PRES   REMARKS
COLUMBUS       MOSUNNY   36  21  55 W12       30.09S WCI  27
GREENWOOD *+   SUNNY     37  26  65 W6        30.09R WCI  32
INDIANAPOLIS   MOSUNNY   33  22  63 W15       30.09S WCI  23
-EAGLE CREEK   MOSUNNY   32  22  66 W15       30.08S WCI  22
KOKOMO +       CLOUDY    31  24  75 W20       30.06R WCI  19
SHELBYVILLE    PTSUNNY   35  21  56 W12       30.08R WCI  27

$$

INZ033-034-041-042-049-050-058-059-192200-
EAST CENTRAL INDIANA

CITY           SKY/WX    TMP DP  RH WIND       PRES   REMARKS
MUNCIE         CLOUDY    32  23  69 W12G20    30.04S WCI  23
RICHMOND +     CLOUDY    32  23  69 W23G29    30.04R WCI  19

$$

INZ060-061-067>069-081>083-085>088-192200-
SOUTHWEST INDIANA

CITY           SKY/WX    TMP DP  RH WIND       PRES   REMARKS
EVANSVILLE     SUNNY     41  23  48 NW9       30.17F
HUNTINGBURG +  SUNNY     40  24  53 W12       30.15S WCI  33

$$

INZ062-063-066-070>080-084-089>092-192200-
SOUTH CENTRAL AND SOUTHEAST INDIANA

CITY           SKY/WX    TMP DP  RH WIND       PRES   REMARKS
BLOOMINGTON    MOSUNNY   35  22  58 W9        30.10S WCI  28
MADISON *+     PTSUNNY   37  25  60 W15G21    30.11R WCI  28

$$





USA.gov is the U.S. government's official web portal to all federal, state and local government web resources and services.